Regional Weather Roundup
Issued by NWS

Home | Current Version | Previous Version | Text Only | Print | Product List | Glossary On
Versions: 1 2 3 4 5 6 7 8 9 10 11 12 13 14 15 16 17 18 19 20 21 22 23 24 25 26 27 28 29 30 31 32 33 34 35 36 37 38 39 40 41 42 43 44 45 46 47 48 49 50
000
ASUS45 KABQ 262110
RWRNM
WEATHER ROUNDUP FOR NEW MEXICO
NATIONAL WEATHER SERVICE ALBUQUERQUE NM
200 PM MST MON JAN 26 2015

NOTE: "FAIR" MEANS FEW OR NO CLOUDS BELOW 12,000 FEET AGL WITH NO
       SIGNIFICANT WEATHER OR OBSTRUCTIONS TO VISION.

      THIS PRODUCT IS RELEASED AS TWO VERSIONS.  ONE VERSION NEAR
      THE TOP OF THE HOUR CONTAINING PRELIMINARY DATA FROM ALBUQUERQUE
      AND OTHER STATIONS.  A FINAL VERSION WITH ADDITIONAL DATA IS
      ISSUED ABOUT 10 MINUTES AFTER THE HOUR.

NMZ501-503-504-510>518-262200-
NORTHWEST PLATEAU/NORTHCENTRAL MOUNTAINS

CITY           SKY/WX    TMP DP  RH WIND       PRES   REMARKS
FARMINGTON     SUNNY     57  24  28 MISG      30.28F
LOS ALAMOS     SUNNY     52  23  31 N3        30.35F
SANTA FE       SUNNY     57  23  26 N6        30.31F
TAOS           SUNNY     52  27  37 N17       30.35F
ANGEL FIRE     FAIR      49  27  41 CALM      30.40F

$$
NMZ402-403-502-505>509-262200-
WESTCENTRAL MOUNTAINS/SOUTHWEST MOUNTAINS

CITY           SKY/WX    TMP DP  RH WIND       PRES   REMARKS
GALLUP         MOSUNNY   55  27  34 CALM      30.30F
GRANTS         PTSUNNY   56  24  29 SE14      30.34F
SILVER CITY    CLOUDY    57  19  23 SE8       30.30F

$$
NMZ407-409-411-412-262200-
SOUTHERN DESERTS

CITY           SKY/WX    TMP DP  RH WIND       PRES   REMARKS
LORDSBURG      FAIR      61  27  27 SE17G24   30.24F
DEMING         CLOUDY    58  28  32 SE12      30.27F
LAS CRUCES     CLOUDY    58  26  28 CALM      30.29F
HOLLOMAN AFB   PTSUNNY   56  31  38 CALM      30.27F
ALAMOGORDO     PTSUNNY   57  25  28 CALM      30.28F
T OR C         SUNNY     57  26  30 CALM      30.27F

$$
NMZ519>523-262200-
CENTRAL VALLEYS/CENTRAL HIGHLANDS

CITY           SKY/WX    TMP DP  RH WIND       PRES   REMARKS
ALBUQUERQUE    PTSUNNY   52  25  35 S5        30.33F
DOUBLE EAGLE   MOSUNNY   54  25  32 VRB5      30.34F
MORIARTY ARPT  FAIR      62  24  23 SE12      30.33F
CLINES CORNERS SUNNY     54  24  31 E9        30.34S
BELEN          FAIR      54  26  34 NW3       30.32F
SOCORRO        FAIR      57  26  29 N7        30.30F

$$
NMZ524>526-539-540-262200-
SOUTHCENTRAL MOUNTAINS

CITY           SKY/WX    TMP DP  RH WIND       PRES   REMARKS
RUIDOSO        MOSUNNY   57  19  23 N7        30.35S

$$
NMZ527>531-262200-
NORTHEAST HIGHLANDS/NORTHEAST PLAINS

CITY           SKY/WX    TMP DP  RH WIND       PRES   REMARKS
LAS VEGAS      SUNNY     56  26  31 E6        30.35S
RATON          SUNNY     60  25  26 S5        30.31F
CLAYTON        SUNNY     65  29  25 NW9       30.26S

$$
NMZ532>537-262200-
EASTCENTRAL PLAINS

CITY           SKY/WX    TMP DP  RH WIND       PRES   REMARKS
TUCUMCARI      SUNNY     66  29  24 N3        30.23F
CANNON AFB     SUNNY     64  32  30 N5        30.25F
CLOVIS AIRPORT SUNNY     64  36  34 NE6       30.24F

$$
NMZ028-029-538-262200-
SOUTHEAST PLAINS

CITY           SKY/WX    TMP DP  RH WIND       PRES   REMARKS
ROSWELL        PTSUNNY   60  31  33 CALM      30.24F
ARTESIA        PTSUNNY   59  36  41 NE6       30.25F
CARLSBAD       MOSUNNY   63  29  27 NE3       30.23F
HOBBS          SUNNY     64  23  20 W3        30.24F


$$



USA.gov is the U.S. government's official web portal to all federal, state and local government web resources and services.